Los Alamos, NM

3:42 AM MST on January 18, 2018 (GMT -0700)
Los Alamos

Weather History for KLAM - May, 2013

Change the Weather History Date:

Thursday, May 30, 2013

  Actual Average Record
Temperature  
Mean Temperature 63 °F -  
Max Temperature 75 °F 72 °F 86 °F (1977)
Min Temperature 51 °F 46 °F 35 °F (1975)
Degree Days  
Heating Degree Days 2    
Growing Degree Days 13 (Base 50)    
Moisture  
Dew Point 19 °F    
Average Humidity 19    
Maximum Humidity 31    
Minimum Humidity 11    
Precipitation  
Precipitation 0.00 in - - ()
Sea Level Pressure  
Sea Level Pressure 29.99 in    
Wind  
Wind Speed 9 mph (West)    
Max Wind Speed 28 mph    
Max Gust Speed 41 mph    
Visibility 10 miles    
Events      
Averages and records for this station are not official NWS values.
T = Trace of Precipitation, MM = Missing Value Source: NWS Daily Summary

Daily Weather History Graph

Daily Weather History Graph

Search for Another Location

Airport or City:

Trip Planner

Search our weather history database for the weather conditions in past years. The results will help you decide how hot, cold, wet, or windy it might be!

Date:

Astronomy

May. 30, 2013 Rise Set
Actual Time 5:50 AM MDT 8:15 PM MDT
Civil Twilight 5:21 AM MDT 8:44 PM MDT
Nautical Twilight 4:44 AM MDT 9:21 PM MDT
Astronomical Twilight 4:04 AM MDT 10:01 PM MDT
Moon 12:24 AM MDT (5/30) 11:54 AM MDT (5/30)
Length of Visible Light 15h 23m
Length of Day
14h 24m
Waning Gibbous, 61% of the Moon is Illuminated
May 30
Waning Gibbous
May 31
Last Quarter
Jun 8
New
Jun 16
First Quarter
Jun 23
Full

Hourly Weather History & Observations

Time (MDT) Temp. Dew Point Humidity Pressure Visibility Wind Dir Wind Speed Gust Speed Precip Events Conditions
12:15 AM 59.4 °F 17.2 °F 19% 29.90 in 10.0 mi NNW 10.4 mph 18.4 mph N/A   Clear
12:35 AM 59.0 °F 17.6 °F 20% 29.91 in 10.0 mi WNW 5.8 mph 17.3 mph N/A   Clear
12:55 AM 58.3 °F 17.6 °F 20% 29.92 in 10.0 mi ESE 4.6 mph - N/A   Clear
1:15 AM 56.8 °F 15.8 °F 20% 29.93 in 10.0 mi ESE 4.6 mph - N/A   Clear
1:35 AM 56.5 °F 15.6 °F 20% 29.93 in 10.0 mi SSE 3.5 mph - N/A   Clear
1:55 AM 56.8 °F 15.6 °F 20% 29.93 in 10.0 mi Calm Calm - N/A   Clear
2:15 AM 56.7 °F 16.2 °F 20% 29.94 in 10.0 mi Calm Calm - N/A   Clear
2:35 AM 56.3 °F 16.7 °F 21% 29.94 in 10.0 mi Calm Calm - N/A   Clear
2:55 AM 56.3 °F 17.2 °F 22% 29.95 in 10.0 mi Calm Calm - N/A   Clear
3:15 AM 54.9 °F 17.6 °F 23% 29.95 in 10.0 mi Calm Calm - N/A   Clear
3:35 AM 54.5 °F 17.8 °F 24% 29.95 in 10.0 mi Calm Calm - N/A   Clear
3:55 AM 53.6 °F 19.4 °F 26% 29.95 in 10.0 mi South 3.5 mph - N/A   Clear
4:15 AM 51.1 °F 20.3 °F 30% 29.96 in 10.0 mi Calm Calm - N/A   Clear
4:35 AM 52.2 °F 21.7 °F 30% 29.96 in 10.0 mi SSW 4.6 mph - N/A   Clear
4:55 AM 52.0 °F 21.7 °F 31% 29.97 in 10.0 mi WSW 4.6 mph - N/A   Clear
5:15 AM 51.6 °F 21.6 °F 31% 29.98 in 10.0 mi West 4.6 mph - N/A   Clear
5:35 AM 51.8 °F 21.2 °F 30% 29.98 in 10.0 mi West 8.1 mph - N/A   Clear
5:55 AM 51.3 °F 21.2 °F 31% 29.99 in 10.0 mi WNW 4.6 mph - N/A   Clear
6:15 AM 53.2 °F 21.2 °F 29% 30.00 in 10.0 mi WSW 3.5 mph - N/A   Clear
6:35 AM 52.9 °F 21.9 °F 30% 30.01 in 10.0 mi WSW 5.8 mph - N/A   Clear
6:55 AM 54.1 °F 22.8 °F 30% 30.01 in 10.0 mi WSW 6.9 mph - N/A   Clear
7:15 AM 55.8 °F 23.5 °F 29% 30.01 in 10.0 mi West 4.6 mph - N/A   Clear
7:35 AM 56.5 °F 23.7 °F 28% 30.01 in 10.0 mi Calm Calm - N/A   Clear
7:55 AM 57.2 °F 23.0 °F 27% 30.01 in 10.0 mi SE 5.8 mph - N/A   Clear
8:15 AM 57.7 °F 23.9 °F 27% 30.01 in 10.0 mi South 4.6 mph - N/A   Clear
8:35 AM 59.4 °F 23.7 °F 25% 30.01 in 10.0 mi South 6.9 mph - N/A   Clear
8:55 AM 60.6 °F 23.7 °F 24% 30.01 in 10.0 mi ESE 3.5 mph - N/A   Clear
9:15 AM 64.0 °F 25.3 °F 23% 30.01 in 10.0 mi West 10.4 mph 26.5 mph N/A   Clear
9:35 AM 64.4 °F 25.2 °F 23% 30.02 in 10.0 mi West 20.7 mph 34.5 mph N/A   Clear
9:55 AM 65.3 °F 25.2 °F 22% 30.01 in 10.0 mi West 17.3 mph 35.7 mph N/A   Clear
10:15 AM 66.0 °F 23.9 °F 20% 30.01 in 10.0 mi West 24.2 mph 32.2 mph N/A   Clear
10:35 AM 66.4 °F 23.9 °F 20% 30.01 in 10.0 mi West 12.7 mph 27.6 mph N/A   Clear
10:55 AM 67.5 °F 23.0 °F 19% 30.01 in 10.0 mi WNW 16.1 mph 26.5 mph N/A   Clear
11:15 AM 67.6 °F 21.7 °F 18% 30.01 in 10.0 mi WSW 19.6 mph 28.8 mph N/A   Clear
11:35 AM 68.2 °F 21.2 °F 17% 30.01 in 10.0 mi WNW 17.3 mph 28.8 mph N/A   Clear
11:55 AM 69.8 °F 20.1 °F 15% 30.01 in 10.0 mi West 16.1 mph 32.2 mph N/A   Clear
12:15 PM 71.6 °F 20.8 °F 15% 30.00 in 10.0 mi West 11.5 mph 27.6 mph N/A   Clear
12:35 PM 70.9 °F 18.3 °F 14% 30.00 in 10.0 mi West 16.1 mph 35.7 mph N/A   Clear
12:55 PM 72.0 °F 17.1 °F 12% 29.99 in 10.0 mi West 23.0 mph 36.8 mph N/A   Clear
1:15 PM 72.7 °F 16.7 °F 12% 29.99 in 10.0 mi WSW 21.9 mph 28.8 mph N/A   Clear
1:35 PM 72.9 °F 18.9 °F 13% 29.99 in 10.0 mi West 24.2 mph 32.2 mph N/A   Clear
1:55 PM 72.7 °F 18.7 °F 13% 29.99 in 10.0 mi WNW 19.6 mph 40.3 mph N/A   Clear
2:15 PM 73.2 °F 16.9 °F 12% 29.99 in 10.0 mi West 16.1 mph 33.4 mph N/A   Clear
2:35 PM 74.1 °F 16.9 °F 11% 29.99 in 10.0 mi SW 23.0 mph 29.9 mph N/A   Clear
2:55 PM 74.8 °F 16.7 °F 11% 29.99 in 10.0 mi WSW 25.3 mph 34.5 mph N/A   Clear
3:15 PM 75.2 °F 15.8 °F 11% 29.99 in 10.0 mi West 27.6 mph 38.0 mph N/A   Clear
3:35 PM 74.7 °F 16.0 °F 11% 29.98 in 10.0 mi WSW 20.7 mph 33.4 mph N/A   Clear
3:55 PM 74.7 °F 15.6 °F 11% 29.99 in 10.0 mi SW 23.0 mph 41.4 mph N/A   Clear
4:15 PM 75.7 °F 16.5 °F 11% 29.99 in 10.0 mi WSW 24.2 mph 33.4 mph N/A   Clear
4:35 PM 74.8 °F 16.2 °F 11% 29.97 in 10.0 mi West 19.6 mph 27.6 mph N/A   Clear
4:55 PM 74.8 °F 18.3 °F 12% 29.98 in 10.0 mi West 27.6 mph 38.0 mph N/A   Clear
5:15 PM 74.7 °F 19.2 °F 12% 29.97 in 10.0 mi WSW 20.7 mph 38.0 mph N/A   Clear
5:35 PM 74.3 °F 19.4 °F 13% 29.97 in 10.0 mi SW 21.9 mph 28.8 mph N/A   Clear
5:55 PM 73.9 °F 18.7 °F 12% 29.98 in 10.0 mi West 20.7 mph 38.0 mph N/A   Clear
6:15 PM 74.1 °F 19.2 °F 13% 29.98 in 10.0 mi West 15.0 mph 26.5 mph N/A   Clear
6:35 PM 73.9 °F 19.4 °F 13% 29.97 in 10.0 mi WSW 20.7 mph 28.8 mph N/A   Clear
6:55 PM 73.9 °F 19.6 °F 13% 29.97 in 10.0 mi WSW 17.3 mph 25.3 mph N/A   Clear
7:15 PM 73.2 °F 19.4 °F 13% 29.97 in 10.0 mi WSW 13.8 mph 26.5 mph N/A   Clear
7:35 PM 72.5 °F 19.0 °F 13% 29.98 in 10.0 mi WNW 8.1 mph 19.6 mph N/A   Clear
7:55 PM 71.2 °F 18.5 °F 14% 29.99 in 10.0 mi West 9.2 mph - N/A   Clear
8:15 PM 70.0 °F 18.5 °F 14% 30.00 in 10.0 mi WNW 3.5 mph - N/A   Clear
8:35 PM 69.3 °F 18.5 °F 14% 30.00 in 10.0 mi Calm Calm - N/A   Clear
8:55 PM 68.9 °F 18.5 °F 15% 30.01 in 10.0 mi WNW 3.5 mph - N/A   Clear
9:15 PM 68.9 °F 18.5 °F 15% 30.02 in 10.0 mi Calm Calm - N/A   Clear
9:35 PM 68.2 °F 18.3 °F 15% 30.02 in 10.0 mi Calm Calm - N/A   Clear
9:55 PM 68.4 °F 18.1 °F 15% 30.03 in 10.0 mi West 3.5 mph - N/A   Clear
10:15 PM 66.4 °F 18.0 °F 16% 30.04 in 10.0 mi West 3.5 mph - N/A   Clear
10:35 PM 65.8 °F 17.8 °F 16% 30.04 in 10.0 mi WNW 3.5 mph - N/A   Clear
10:55 PM 65.8 °F 17.4 °F 16% 30.04 in 10.0 mi West 5.8 mph - N/A   Clear
11:15 PM 64.9 °F 17.2 °F 16% 30.03 in 10.0 mi West 8.1 mph - N/A   Clear
11:35 PM 64.8 °F 16.9 °F 16% 30.03 in 10.0 mi West 8.1 mph - N/A   Clear
11:55 PM 64.8 °F 17.1 °F 16% 30.03 in 10.0 mi WSW 3.5 mph - N/A   Clear